Location: Baumgarten
(49.0970°N, 12.7493°E)
Time: 08:35:25
(UTC+00:00)

Aureole 2 Rocket - Pass Details

Date: 05 July 2020
Orbit: 304 x 429 km, 73.9° (Epoch: 04 August)

Event Time Altitude Azimuth Distance (km) Brightness Sun altitude
Rises 22:43:52 0° 331° (NNW) 2,121 7.1 -17.9°
Reaches altitude 10° 22:45:49 10° 326° (NW) 1,299 5.7 -18.0°
Enters shadow 22:48:27 46° 258° (WSW) 484 2.4 -18.0°
